• In Hungary
  • List of Countries
  • For 7 days
  • Water Temperature
  • Satellite Maps
  • Weather Map
  • News
  • Weather Widgets
  • user-avatar
    Login

    Hourly Weather Sangkhla Buri

    Today, 21 October, Saturday

    Time Temperature Precipitation Wind Pressure Humidity
    00:00 +23°C° 0 mm 0 mps 742 mmHg 96%
    01:00 +23°C° 0 mm 0 mps 742 mmHg 97%
    02:00 +23°C° 0 mm 0 mps 741 mmHg 97%
    03:00 +22°C° 0 mm 0 mps 741 mmHg 97%
    04:00 +22°C° 0 mm 0 mps 741 mmHg 97%
    05:00 +22°C° 0 mm 0 mps 741 mmHg 95%
    06:00 +23°C° 0 mm 0 mps 741 mmHg 94%
    07:00 +23°C° 0 mm 0 mps 741 mmHg 92%
    08:00 +25°C° 0 mm 0 mps 742 mmHg 81%
    09:00 +30°C° 0 mm 1 mps 742 mmHg 69%
    10:00 +33°C° 0 mm 1 mps 742 mmHg 58%
    11:00 +33°C° 0.1 mm 1 mps 742 mmHg 58%
    12:00 +33°C° 0.1 mm 1 mps 741 mmHg 59%
    13:00 +35°C° 0.1 mm 2 mps 740 mmHg 59%
    14:00 +33°C° 1.1 mm 1 mps 740 mmHg 67%
    15:00 +32°C° 1.1 mm 1 mps 739 mmHg 74%
    16:00 +31°C° 1.1 mm 1 mps 739 mmHg 82%
    17:00 +29°C° 0.3 mm 1 mps 739 mmHg 86%
    18:00 +28°C° 0.3 mm 1 mps 739 mmHg 91%
    19:00 +24°C° 0.3 mm 0 mps 739 mmHg 95%
    20:00 +24°C° 0 mm 0 mps 740 mmHg 96%
    21:00 +24°C° 0 mm 0 mps 740 mmHg 96%
    22:00 +23°C° 0 mm 0 mps 741 mmHg 97%
    23:00 +23°C° 0 mm 0 mps 741 mmHg 97%

    Tomorrow, 22 October, Sunday

    Time Temperature Precipitation Wind Pressure Humidity
    00:00 +23°C° 0 mm 0 mps 741 mmHg 97%
    01:00 +23°C° 0 mm 0 mps 740 mmHg 97%
    02:00 +23°C° 0 mm 0 mps 740 mmHg 97%
    03:00 +23°C° 0 mm 0 mps 740 mmHg 97%
    04:00 +23°C° 0 mm 0 mps 739 mmHg 97%
    05:00 +23°C° 0 mm 0 mps 740 mmHg 97%
    06:00 +23°C° 0 mm 0 mps 740 mmHg 96%
    07:00 +23°C° 0 mm 0 mps 740 mmHg 95%
    08:00 +26°C° 0 mm 0 mps 741 mmHg 84%
    09:00 +28°C° 0 mm 0 mps 741 mmHg 72%
    10:00 +31°C° 0 mm 0 mps 741 mmHg 61%
    11:00 +33°C° 0.4 mm 1 mps 741 mmHg 62%
    12:00 +33°C° 0.4 mm 1 mps 740 mmHg 63%
    13:00 +34°C° 0.4 mm 1 mps 739 mmHg 65%
    14:00 +33°C° 1.3 mm 1 mps 739 mmHg 69%
    15:00 +32°C° 1.3 mm 1 mps 738 mmHg 73%
    16:00 +31°C° 1.3 mm 1 mps 738 mmHg 77%
    17:00 +30°C° 0.5 mm 1 mps 738 mmHg 82%
    18:00 +28°C° 0.5 mm 1 mps 738 mmHg 87%
    19:00 +25°C° 0.5 mm 0 mps 739 mmHg 92%
    20:00 +25°C° 0 mm 0 mps 739 mmHg 93%
    21:00 +24°C° 0 mm 0 mps 740 mmHg 95%
    22:00 +24°C° 0 mm 0 mps 741 mmHg 96%
    23:00 +24°C° 0 mm 0 mps 740 mmHg 96%

    Day after tomorrow, 23 October, Monday

    Time Temperature Precipitation Wind Pressure Humidity
    00:00 +23°C° 0 mm 0 mps 740 mmHg 97%
    01:00 +23°C° 0 mm 0 mps 740 mmHg 97%
    02:00 +23°C° 0 mm 0 mps 739 mmHg 97%
    03:00 +23°C° 0 mm 0 mps 739 mmHg 98%
    04:00 +23°C° 0 mm 0 mps 739 mmHg 98%
    05:00 +23°C° 0 mm 0 mps 739 mmHg 97%
    06:00 +23°C° 0 mm 0 mps 740 mmHg 96%
    07:00 +23°C° 0 mm 0 mps 740 mmHg 95%
    08:00 +26°C° 0 mm 0 mps 740 mmHg 83%
    09:00 +29°C° 0 mm 0 mps 741 mmHg 72%
    10:00 +31°C° 0 mm 0 mps 742 mmHg 61%
    11:00 +32°C° 0.5 mm 0 mps 741 mmHg 62%
    12:00 +32°C° 0.5 mm 0 mps 740 mmHg 63%
    13:00 +34°C° 0.5 mm 1 mps 739 mmHg 64%
    14:00 +33°C° 1.6 mm 1 mps 739 mmHg 69%
    15:00 +30°C° 1.6 mm 0 mps 738 mmHg 75%
    16:00 +29°C° 1.6 mm 0 mps 738 mmHg 81%
    17:00 +28°C° 1.1 mm 0 mps 738 mmHg 85%
    18:00 +26°C° 1.1 mm 0 mps 739 mmHg 89%
    19:00 +25°C° 1.1 mm 0 mps 739 mmHg 93%
    20:00 +25°C° 1.6 mm 0 mps 740 mmHg 93%
    21:00 +24°C° 1.6 mm 0 mps 741 mmHg 94%
    22:00 +24°C° 1.6 mm 0 mps 741 mmHg 94%
    23:00 +24°C° 1.3 mm 0 mps 741 mmHg 95%

    24 October, Tuesday

    Time Temperature Precipitation Wind Pressure Humidity
    00:00 +24°C° 1.3 mm 0 mps 741 mmHg 95%
    01:00 +24°C° 1.3 mm 0 mps 741 mmHg 95%
    02:00 +23°C° 1 mm 0 mps 741 mmHg 95%
    03:00 +23°C° 1 mm 0 mps 740 mmHg 95%
    04:00 +23°C° 1 mm 0 mps 740 mmHg 95%
    05:00 +23°C° 0.1 mm 0 mps 740 mmHg 95%
    06:00 +23°C° 0.1 mm 0 mps 741 mmHg 94%
    07:00 +23°C° 0.1 mm 0 mps 741 mmHg 94%
    08:00 +27°C° 0 mm 1 mps 742 mmHg 89%
    09:00 +28°C° 0 mm 1 mps 742 mmHg 84%
    10:00 +29°C° 0 mm 1 mps 743 mmHg 79%
    11:00 +30°C° 0.1 mm 1 mps 742 mmHg 74%
    12:00 +31°C° 0.1 mm 1 mps 741 mmHg 68%
    13:00 +33°C° 0.1 mm 1 mps 741 mmHg 63%
    14:00 +32°C° 0.7 mm 1 mps 740 mmHg 67%
    15:00 +32°C° 0.7 mm 1 mps 740 mmHg 71%
    16:00 +31°C° 0.7 mm 1 mps 740 mmHg 75%
    17:00 +28°C° 0.5 mm 0 mps 740 mmHg 80%
    18:00 +26°C° 0.5 mm 0 mps 741 mmHg 86%
    19:00 +25°C° 0.5 mm 0 mps 741 mmHg 92%
    20:00 +24°C° 0.4 mm 0 mps 742 mmHg 93%
    21:00 +24°C° 0.4 mm 0 mps 742 mmHg 93%
    22:00 +24°C° 0.4 mm 0 mps 743 mmHg 94%
    23:00 +23°C° 0.1 mm 0 mps 742 mmHg 94%

    25 October, Wednesday

    Time Temperature Precipitation Wind Pressure Humidity
    00:00 +25°C° 0.1 mm 1 mps 742 mmHg 94%
    01:00 +25°C° 0.1 mm 1 mps 742 mmHg 94%
    02:00 +25°C° 0 mm 1 mps 742 mmHg 94%
    03:00 +25°C° 0 mm 1 mps 742 mmHg 94%
    04:00 +25°C° 0 mm 1 mps 741 mmHg 94%
    05:00 +25°C° 0 mm 1 mps 742 mmHg 94%
    06:00 +25°C° 0 mm 1 mps 742 mmHg 94%
    07:00 +25°C° 0 mm 1 mps 743 mmHg 93%
    08:00 +27°C° 0 mm 1 mps 743 mmHg 84%
    09:00 +29°C° 0 mm 1 mps 744 mmHg 75%
    10:00 +31°C° 0 mm 2 mps 744 mmHg 66%
    11:00 +32°C° 0.3 mm 2 mps 744 mmHg 65%
    12:00 +34°C° 0.3 mm 2 mps 743 mmHg 64%
    13:00 +33°C° 0.3 mm 1 mps 742 mmHg 62%
    14:00 +33°C° 0.9 mm 1 mps 742 mmHg 64%
    15:00 +33°C° 0.9 mm 1 mps 741 mmHg 66%
    16:00 +32°C° 0.9 mm 1 mps 741 mmHg 67%
    17:00 +30°C° 1 mm 1 mps 741 mmHg 75%
    18:00 +28°C° 1 mm 1 mps 741 mmHg 82%
    19:00 +25°C° 1 mm 0 mps 742 mmHg 90%
    20:00 +24°C° 0.1 mm 0 mps 742 mmHg 91%
    21:00 +24°C° 0.1 mm 0 mps 743 mmHg 93%
    22:00 +23°C° 0.1 mm 0 mps 743 mmHg 94%
    23:00 +23°C° 0 mm 0 mps 743 mmHg 94%

    26 October, Thursday

    Time Temperature Precipitation Wind Pressure Humidity
    00:00 +25°C° 0 mm 1 mps 742 mmHg 95%
    01:00 +25°C° 0 mm 1 mps 742 mmHg 95%
    02:00 +24°C° 0 mm 1 mps 742 mmHg 95%
    03:00 +24°C° 0 mm 1 mps 742 mmHg 95%
    04:00 +24°C° 0 mm 1 mps 741 mmHg 95%
    05:00 +24°C° 0 mm 1 mps 742 mmHg 94%
    06:00 +24°C° 0 mm 1 mps 742 mmHg 94%
    07:00 +25°C° 0 mm 1 mps 743 mmHg 93%
    08:00 +27°C° 0 mm 1 mps 743 mmHg 82%
    09:00 +30°C° 0 mm 1 mps 744 mmHg 71%
    10:00 +32°C° 0 mm 1 mps 744 mmHg 60%
    11:00 +33°C° 0 mm 1 mps 743 mmHg 56%
    12:00 +34°C° 0 mm 1 mps 742 mmHg 52%
    13:00 +36°C° 0 mm 1 mps 741 mmHg 47%
    14:00 +35°C° 0 mm 1 mps 741 mmHg 52%
    15:00 +34°C° 0 mm 1 mps 740 mmHg 57%
    16:00 +33°C° 0 mm 1 mps 740 mmHg 62%
    17:00 +31°C° 0.3 mm 1 mps 740 mmHg 71%
    18:00 +27°C° 0.3 mm 0 mps 741 mmHg 80%
    19:00 +25°C° 0.3 mm 0 mps 741 mmHg 90%
    20:00 +24°C° 0.3 mm 0 mps 741 mmHg 91%
    21:00 +24°C° 0.3 mm 0 mps 742 mmHg 92%
    22:00 +23°C° 0.3 mm 0 mps 742 mmHg 94%
    23:00 +23°C° 0.4 mm 0 mps 742 mmHg 94%
    Show more